TimeMST,TemperatureF,Dew PointF,Humidity,Sea Level PressureIn,VisibilityMPH,Wind Direction,Wind SpeedMPH,Gust SpeedMPH,PrecipitationIn,Events,Conditions,WindDirDegrees,DateUTC
12:53 AM,12.0,9.0,88,30.17,9.0,West,3.5,-,N/A,,Clear,270,2013-01-24 07:53:00
1:53 AM,12.0,9.0,88,30.17,9.0,NNW,6.9,-,N/A,,Clear,330,2013-01-24 08:53:00
2:53 AM,10.9,8.1,88,30.15,8.0,SE,5.8,-,N/A,,Clear,140,2013-01-24 09:53:00
3:53 AM,8.1,6.1,92,30.14,10.0,West,5.8,-,N/A,,Clear,280,2013-01-24 10:53:00
4:53 AM,8.1,5.0,87,30.14,10.0,Variable,3.5,-,N/A,,Clear,0,2013-01-24 11:53:00
5:53 AM,8.1,5.0,87,30.14,8.0,SE,4.6,-,N/A,,Clear,130,2013-01-24 12:53:00
6:53 AM,9.0,6.1,88,30.14,9.0,ESE,5.8,-,N/A,,Clear,120,2013-01-24 13:53:00
7:53 AM,9.0,7.0,92,30.14,8.0,SW,3.5,-,N/A,,Clear,220,2013-01-24 14:53:00
8:53 AM,10.0,6.1,84,30.15,9.0,NNW,5.8,-,N/A,,Partly Cloudy,330,2013-01-24 15:53:00
9:53 AM,14.0,10.0,84,30.16,10.0,SE,6.9,-,N/A,,Clear,140,2013-01-24 16:53:00
10:53 AM,19.9,14.0,78,30.14,10.0,SE,5.8,-,N/A,,Clear,140,2013-01-24 17:53:00
11:53 AM,25.0,16.0,69,30.11,10.0,Variable,3.5,-,N/A,,Clear,0,2013-01-24 18:53:00
12:53 PM,26.1,18.0,71,30.12,10.0,West,3.5,-,N/A,,Clear,270,2013-01-24 19:53:00
1:53 PM,28.9,19.0,67,30.11,10.0,SE,4.6,-,N/A,,Clear,140,2013-01-24 20:53:00
2:53 PM,32.0,21.0,64,30.11,10.0,ESE,8.1,-,N/A,,Clear,120,2013-01-24 21:53:00
3:53 PM,34.0,21.9,61,30.12,10.0,Calm,Calm,-,N/A,,Clear,0,2013-01-24 22:53:00
4:53 PM,30.0,19.9,66,30.17,10.0,NNE,4.6,-,N/A,,Clear,30,2013-01-24 23:53:00
5:53 PM,28.9,19.9,69,30.20,10.0,Calm,Calm,-,N/A,,Clear,0,2013-01-25 00:53:00
6:53 PM,21.9,17.1,82,30.25,10.0,SE,4.6,-,N/A,,Clear,130,2013-01-25 01:53:00
7:53 PM,23.0,17.1,78,30.27,10.0,SSE,9.2,-,N/A,,Clear,160,2013-01-25 02:53:00
8:53 PM,21.9,17.1,82,30.28,10.0,East,3.5,-,N/A,,Clear,100,2013-01-25 03:53:00
9:53 PM,19.9,16.0,85,30.29,10.0,SE,3.5,-,N/A,,Clear,140,2013-01-25 04:53:00
10:53 PM,15.1,10.9,84,30.29,10.0,Calm,Calm,-,N/A,,Clear,0,2013-01-25 05:53:00
11:53 PM,10.9,9.0,92,30.29,10.0,Variable,3.5,-,N/A,,Clear,0,2013-01-25 06:53:00